Location: Beadle
(51.4667°N, 109.0000°W)
Time: 05:20:11
(UTC+00:00)

Altair - Pass Details

Date: 30 May 2022
Orbit: 1501 x 1682 km, 47.2° (Epoch: 30 June)

Event Time Altitude Azimuth Distance (km) Brightness Sun altitude
Rises 05:39:36 0° 288° (WNW) 4,935 10.8 -13.9°
Reaches altitude 10° 05:43:31 10° 276° (W) 3,949 10.0 -14.1°
Maximum altitude 05:51:03 25° 227° (SW) 2,940 8.8 -14.6°
Enters shadow 05:56:49 15° 186° (S) 3,542 8.8 -14.8°
Drops below altitude 10° 05:58:32 10° 178° (S) 3,901 - -14.9°
Sets 06:02:24 0° 166° (SSE) 4,863 - -15.1°
